Regional Weather Roundup
Issued by NWS Boston, MA

Home | Current Version | Previous Version | Text Only | Print | Product List | Glossary On
Versions: 1 2 3 4 5 6 7 8 9 10 11 12 13 14 15 16 17 18 19 20 21 22 23 24 25 26 27 28 29 30 31 32 33 34 35 36 37 38 39 40 41 42 43 44 45 46 47 48 49 50
000
ASUS41 KBOX 292310
RWRBOX

REGIONAL WEATHER ROUNDUP
NATIONAL WEATHER SERVICE TAUNTON MA
700 PM EDT SUN MAY 29 2016

NOTE:  "FAIR" INDICATES FEW OR NO CLOUDS BELOW 12,000 FEET WITH NO
SIGNIFICANT WEATHER AND/OR OBSTRUCTIONS TO VISIBILITY.  THE FOLLOWING
OBSERVATION LOCATIONS DO NOT REPORT PRESENT WEATHER...PROVINCETOWN...
SMITHFIELD...BLOCK ISLAND...KEENE...AND OXFORD.

MAZALL-300000-
EASTERN MASSACHUSETTS

CITY           SKY/WX    TMP DP  RH WIND       PRES   REMARKS
BOSTON         CLOUDY    55  52  89 NE9       30.17F
BEVERLY        CLOUDY    53  50  89 N8        30.17S FOG
LAWRENCE       CLOUDY    54  50  86 NE10      30.19F
BEDFORD        CLOUDY    55  51  86 NE10      30.16S
BLUE HILL        N/A     52  52 100 NE10G17   30.15F
NORWOOD        CLOUDY    56  52  86 NE7       30.16S FOG
MARSHFIELD     CLOUDY    55  54  94 VRB3G12   30.16S FOG
PLYMOUTH       CLOUDY    57  53  86 NE9       30.15F
TAUNTON        CLOUDY    64  55  72 VRB5      30.14S
NEW BEDFORD    MOSUNNY   68  59  73 SE10      30.13S
$$

MAZALL-300000-
CAPE COD AND THE ISLANDS

CITY           SKY/WX    TMP DP  RH WIND       PRES   REMARKS
FALMOUTH       MOSUNNY   57  54  88 NE8       30.15S
HYANNIS        PTSUNNY   57  53  86 N7        30.14F
CHATHAM        PTSUNNY   60  56  86 NW5       30.16S
PROVINCETOWN   CLOUDY    55  53  93 N7        30.16F
NANTUCKET      PTSUNNY   68  60  75 CALM      30.15F
MARTHAS VNYRD  CLOUDY    66  59  78 S5        30.14F
$$

MAZALL-300000-
CENTRAL AND WESTERN MASSACHUSETTS

CITY           SKY/WX    TMP DP  RH WIND       PRES   REMARKS
WORCESTER      CLOUDY    57  54  89 NE8       30.15S
FITCHBURG      CLOUDY    58  53  84 E5        30.18R
ORANGE         CLOUDY    63  56  78 NE8       30.14R
SPRINGFIELD    PTSUNNY   72  61  69 NE9       30.08R
WESTFIELD      CLOUDY    73  62  68 N8        30.08R
NORTH ADAMS    NOT AVBL
PITTSFIELD     MOSUNNY   73  66  78 E7        30.08R
$$

RIZALL-300000-
RHODE ISLAND

CITY           SKY/WX    TMP DP  RH WIND       PRES   REMARKS
PROVIDENCE     PTSUNNY   69  63  81 SE10      30.13R
NEWPORT        FOG       63  62  97 SE7       30.14R VSB 1/4
BLOCK ISLAND   LGT RAIN  66  65  96 S6        30.13F VSB 1/2
SMITHFIELD     SUNNY    N/A N/A N/A E8        30.14R
WESTERLY       FOG       63  60  90 CALM      30.13S VSB 3/4
$$

CTZALL-300000-
CONNECTICUT

CITY           SKY/WX    TMP DP  RH WIND       PRES   REMARKS
BRADLEY INTL   CLOUDY    81  58  45 S13       30.06R
HARTFORD       CLOUDY    81  57  43 S12       30.07R
BRIDGEPORT     SUNNY     73  66  78 S10       30.08F
DANBURY        SUNNY     77  59  53 S7        30.09R
GROTON         FOG       64  64 100 S6        30.11S VSB 1
NEW HAVEN      PTSUNNY   71  66  84 S9        30.09S
CHESTER        PTSUNNY   73  68  83 S12       30.11S
MERIDEN        MOSUNNY   78  64  61 S10       30.07F
WILLIMANTIC    MOSUNNY   81  55  40 S9        30.09R
OXFORD         PTSUNNY   75  59  57 S10       30.10S
$$

MEZ002-015-021-024-NHZ003-005-008-011-012-014-VTZ005-008-300000-
NORTHERN NEW ENGLAND

CITY           SKY/WX    TMP DP  RH WIND       PRES   REMARKS
PORTLAND ME    CLOUDY    51  49  92 E9        30.21F FOG
BANGOR ME      CLOUDY    61  45  55 SE9       30.20S
CONCORD NH     CLOUDY    57  51  80 VRB6      30.18S
MANCHESTER NH  CLOUDY    55  50  83 E7        30.17S
NASHUA NH      CLOUDY    57  54  88 E6        30.18S
PORTSMOUTH NH  CLOUDY    52  50  94 NE7       30.18F FOG
JAFFREY NH     CLOUDY    58  32  37 SE5       30.16S
KEENE NH       CLOUDY   N/A N/A N/A NE7       30.14R
BURLINGTON VT  RAIN      70  65  84 SE8       30.03F
MT. WASHINGTON PTSUNNY   55  54  94 SW28        N/A
$$

NYZ052-076-300000-
EASTERN NEW YORK

CITY           SKY/WX    TMP DP  RH WIND       PRES   REMARKS
ALBANY         LGT RAIN  72  66  81 NW6       30.03R
NEW YORK CITY  PTSUNNY   76  70  82 S18G24    30.05F
$$

ANZALL-300000-
MARINE OBSERVATIONS

STATION/POSITION TIME  TEMP    WIND        PRES    VSBY  WAVE
                       AIR SEA DIR/SP/G                  HT/PER
                 (UTC) (F)     (DEG/KT/KT) (MB)    (MI)  (FT/S)
BOSTON BUOY      2250   54 57   30/ 10/ 12 1021.0F         3/ 6
BUZZARDS BAY     2200   61     150/  8/  9 1021.1F
NANTUCKET SOUND  2250   60 60   10/  4/  6 1020.6F         1/ 6
MASS BAY-STELLWA 2204   52 55                N/A     1/2   3/ 6
ISLE OF SHOALS   2200   51      60/ 11/ 12 1022.0F
S OF BLOCK IS    2225      60                N/A           3/ 8
$$

......................KEY.........................
  SKY/WX - SKY CONDITION/PRESENT WEATHER
  TMP    - TEMPERATURE IN FAHRENHEIT
  DWPT   - DEWPOINT IN FAHRENHEIT
  RH     - RELATIVE HUMIDITY IN PERCENT
  WIND   - DIRECTION AND SPEED IN MPH
  PRES   - MEAN SEA LEVEL PRESSURE IN INCHES OF HG
  WCI    - WIND CHILL INDEX
  VSB    - VISIBILITY IN MILES
  HX     - HEAT INDEX
  TC     - TEMPERATURE IN CELSIUS
  VRB    - VARIABLE WIND DIRECTION
  N/A    - NOT AVAILABLE



USA.gov is the U.S. government's official web portal to all federal, state and local government web resources and services.